Regional Weather Roundup
Issued by NWS Austin/San Antonio, TX

Home | Current Version | Previous Version | Text Only | Print | Product List | Glossary On
Versions: 1 2 3 4 5 6 7 8 9 10 11 12 13 14 15 16 17 18 19 20 21 22 23 24 25 26 27 28 29 30 31 32 33 34 35 36 37 38 39 40 41 42 43 44 45 46 47 48 49 50
000
ASUS44 KEWX 132010
RWREWX
SOUTH TEXAS REGIONAL WEATHER ROUNDUP
NATIONAL WEATHER SERVICE AUSTIN/SAN ANTONIO TX
200 PM CST WED DEC 13 2017

NOTE: "FAIR" INDICATED FEW OR NO CLOUDS BELOW 12,000 FEET WITH NO
SIGNIFICANT WEATHER AND/OR OBSTRUCTIONS TO VISIBILITY.

* - THESE STATIONS ARE NOT NWS OR FAA STATIONS...AND ARE NOT SUBJECT
    TO NWS AND FAA QUALITY CONTROL.

TXZ171-172-183>190-132100-
TEXAS HILL COUNTRY AND EDWARDS PLATEAU

CITY           SKY/WX    TMP DP  RH WIND       PRES   REMARKS
JUNCTION       CLOUDY    65  29  25 S12       30.02F
*LLANO         CLOUDY    70  30  23 SW8       30.03F
BURNET         CLOUDY    61  32  33 S8        30.03F
*HORSESHOE BAY CLOUDY    66  32  28 SW5       30.02F
*KERRVILLE     CLOUDY    59  28  29 SW7       30.05F
*FREDERICKSBRG CLOUDY    59  29  31 SW9       30.04F
*ROCKSPRINGS   NOT AVBL
*BOERNE STAGE  CLOUDY    55  32  41 SW7       30.07F
*CASTROVILLE   CLOUDY    61  32  33 SW5       30.09F
HONDO          CLOUDY    62  33  33 S6        30.08F
*UVALDE        CLOUDY    57  36  45 CALM      30.08F
DEL RIO        CLOUDY    55  38  52 S3        30.05F
LAUGHLIN AFB   PTSUNNY   57  35  43 S5        30.05F
CARRIZO SPRGS  PTSUNNY   59  36  41 S3        30.07F
*EAGLE PASS    CLEAR     61  34  36 SE7       30.07F
$$

TXZ173-191>194-202-209-217>225-228-132100-
CENTRAL AND SOUTH CENTRAL TEXAS

CITY           SKY/WX    TMP DP  RH WIND       PRES   REMARKS
GEORGETOWN     CLOUDY    61  32  33 S15       30.03F
AUSTIN/BERGSTM CLOUDY    61  34  36 SW10      30.04F
AUSTIN/MABRY   CLOUDY    61  33  35 VRB7      30.05F
*AUSTIN/EXEC   CLOUDY    59  32  36 S15       30.04F
*LAGO VISTA    CLOUDY    61  32  33 SW10      30.03F
SAN MARCOS     MOSUNNY   61  33  35 SW14      30.07F
NEW BRAUNFELS  CLOUDY    60  31  33 SW12      30.06F
RANDOLPH AFB   CLOUDY    59  32  36 S12       30.07F
PT SAN ANTONIO CLOUDY    60  34  37 W6        30.06F
SAN ANTONIO    CLOUDY    58  32  37 S10       30.08F
STINSON FIELD  CLOUDY    61  34  36 SW6       30.07F
*LA GRANGE     CLOUDY    58  35  42 SW7       30.05F
*GIDDINGS      CLOUDY    57  33  39 SW6       30.06F
*GONZALES      CLOUDY    61  34  36 SW8       30.08F
$$

TXZ163>164-176>182-195>201-210>213-226-227-235-132100-
SOUTHEAST TEXAS

CITY           SKY/WX    TMP DP  RH WIND       PRES   REMARKS
COLLEGE STN    CLOUDY    57  34  41 S9        30.05F
*BRYAN         CLOUDY    56  33  41 S6        30.06F
*CALDWELL      CLOUDY    59  35  40 SW10      30.05F
*CROCKETT        N/A     61  32  33 SW13      30.06F
*BRENHAM       CLOUDY    59  33  37 SW8       30.07F
HUNTSVILLE     CLOUDY    57  32  38 SW8       30.05F
CONROE         MOSUNNY   57  32  38 S8        30.06F
HOUSTON BUSH   PTSUNNY   57  30  35 S6        30.08F
HOUSTON HOBBY  CLOUDY    57  31  37 SW5       30.08F
*HOUSTON SW AP CLOUDY    57  32  38 CALM      30.09F
PEARLAND       CLOUDY    58  30  34 W6        30.10F
HOUSTON HOOKS  CLOUDY    58  32  37 S8        30.08F
ELLINGTON FLD  PTSUNNY   57  34  41 SW6       30.10F
SUGAR LAND     CLOUDY    59  31  34 S7        30.09F
*HOUSTON EXEC  NOT AVBL
*CLEVELAND MUN CLOUDY    57  30  34 SW7       30.08F
*WHARTON       CLOUDY    58  33  38 SW6       30.11F
*COLUMBUS      FAIR     N/A N/A N/A SW8       30.10F
*EAGLE LAKE    CLOUDY    58  35  42 SW7       30.08F
$$

TXZ214>216-236>238-132100-
THE UPPER TEXAS COAST

CITY           SKY/WX    TMP DP  RH WIND       PRES   REMARKS
*ORANGE        MOSUNNY   59  38  45 SW10      30.09F
PORT ARTHUR    MOSUNNY   58  37  45 SW12      30.08F
GALVESTON      CLOUDY    60  43  53 W7        30.10F
ANGLETON       CLOUDY    60  32  34 S6        30.08F
*BAY CITY      CLOUDY    61  32  33 SW3       30.09F
PALACIOS       CLOUDY    60  36  40 S7        30.10F
$$

TXZ229>234-239>247-132100-
TEXAS COASTAL BEND AND RIO GRANDE PLAINS

CITY           SKY/WX    TMP DP  RH WIND       PRES   REMARKS
VICTORIA       CLOUDY    62  33  33 SW3       30.08F
*BEEVILLE      CLOUDY    64  35  34 S7        30.08F
ROCKPORT       MOSUNNY   63  40  42 S5        30.09F
*PORT ARANSAS  NOT AVBL
*PORT LAVACA   CLOUDY    62  38  41 SW5       30.10F
*INGLESIDE     MOSUNNY   66  37  35 S5        30.09F
CORPUS CHRISTI CLOUDY    63  43  48 SW7       30.09F
CORPUS NAS     CLOUDY    66  45  46 S8        30.09F
*ROBSTOWN      MOSUNNY   64  41  42 SW8       30.10F
ALICE          CLOUDY    65  33  30 SW12      30.09F
KINGSVILLE NAS CLOUDY    66  42  41 SW9       30.09F
COTULLA        PTSUNNY   63  35  35 SW5       30.08F
*FAITH RANCH   SUNNY     61  41  48 S7        30.07F
LAREDO           N/A    N/A N/A N/A MISG        N/A
$$

TXZ248>255-132100-
DEEP SOUTH TEXAS

CITY           SKY/WX    TMP DP  RH WIND       PRES   REMARKS
BROWNSVILLE    PTSUNNY   70  47  43 SW6       30.10F
PORT ISABEL    PTSUNNY   66  46  48 E5        30.09F
*SOUTH PADRE   NOT AVBL
HARLINGEN      CLOUDY    66  45  46 VRB5      30.09F
*HEBBRONVILLE  CLOUDY    64  29  26 SW8       30.09F
MCALLEN        CLOUDY    66  38  35 CALM      30.10F
*WESLACO       CLOUDY    64  37  36 CALM      30.10F
FALFURRIAS     CLOUDY    66  34  30 S7        30.10F
EDINBURG       PTSUNNY   66  35  31 CALM      30.10F
*ZAPATA        PTSUNNY   65  32  29 SE8       30.08F
$$

TXZ213>215-236>238-242>244-246-247-251-254-255-132100-
CMAN STATIONS

STATION/POSITION TIME  TEMP    WIND        PRES    WAVE
                       AIR SEA DIR/SP/G            HT/PER
                 (UTC) (F)     (DEG/KT/KT) (MB)    (FT/S)
SABINE PASS      1942   58 57  210/  6/ 12 1020.3
SEA RIM ST PARK  2000   57     230/  8/ 11 1019.0
NORTH JETTY/GLS  1942      58  280/  8/  9 1018.4
EAGLE POINT      1942   58 55  280/  5/  6 1019.0
MORGANS POINT    1942   58 57  250/  5/  7 1018.8
PORT O`CONNOR    1942   58 55  160/  3/  4 1019.1
MALAQUITE BEACH  1942   62 63  140/  4/  5 1018.7
BAFFIN BAY       1942   63 56   CALM  /  1 1019.2
PORT ISABEL      1942   62 57   10/  3/  4 1018.9
$$




USA.gov is the U.S. government's official web portal to all federal, state and local government web resources and services.